Cotulla, TX

11:29 AM CDT on March 30, 2017 (GMT -0500)
Cotulla-La Salle County

Weather History for KCOT - May, 2013

Change the Weather History Date:

Wednesday, May 1, 2013

  Actual Average Record
Temperature  
Mean Temperature 82 °F -  
Max Temperature 95 °F 87 °F 109 °F (2002)
Min Temperature 71 °F 64 °F 48 °F (2005)
Cooling Degree Days 17    
Growing Degree Days 32 (Base 50)    
Moisture  
Dew Point 68 °F    
Average Humidity 70    
Maximum Humidity 94    
Minimum Humidity 37    
Precipitation  
Precipitation 0.00 in - - ()
Sea Level Pressure  
Sea Level Pressure 29.78 in    
Wind  
Wind Speed 9 mph (ESE)    
Max Wind Speed 15 mph    
Max Gust Speed 23 mph    
Visibility 9 miles    
Events      
Averages and records for this station are not official NWS values.
T = Trace of Precipitation, MM = Missing Value Source: NWS Daily Summary

Daily Weather History Graph

Daily Weather History Graph

Search for Another Location

Airport or City:

Trip Planner

Search our weather history database for the weather conditions in past years. The results will help you decide how hot, cold, wet, or windy it might be!

Date:

Astronomy

May. 01, 2013 Rise Set
Actual Time 6:56 AM CDT 8:12 PM CDT
Civil Twilight 6:31 AM CDT 8:37 PM CDT
Nautical Twilight 6:01 AM CDT 9:06 PM CDT
Astronomical Twilight 5:30 AM CDT 9:37 PM CDT
Moon 1:21 AM CDT (5/1) 12:35 PM CDT (5/1)
Length of Visible Light 14h 05m
Length of Day
13h 16m
Waning Gibbous, 59% of the Moon is Illuminated
May 1
Waning Gibbous
May 2
Last Quarter
May 9
New
May 17
First Quarter
May 24
Full

Hourly Weather History & Observations

Time (CDT) Temp. Heat Index Dew Point Humidity Pressure Visibility Wind Dir Wind Speed Gust Speed Precip Events Conditions
12:34 AM 73.4 °F - 69.8 °F 88% 29.77 in 10.0 mi SE 13.8 mph 19.6 mph N/A   Mostly Cloudy
12:53 AM 73.4 °F - 68.0 °F 83% 29.78 in 10.0 mi SE 15.0 mph 23.0 mph N/A   Overcast
1:51 AM 73.4 °F - 68.0 °F 83% 29.77 in 10.0 mi SE 6.9 mph - N/A   Mostly Cloudy
1:53 AM 73.0 °F - 68.0 °F 84% 29.74 in 10.0 mi SE 6.9 mph - N/A   Mostly Cloudy
2:53 AM 72.0 °F - 68.0 °F 87% 29.74 in 10.0 mi ESE 8.1 mph - N/A   Overcast
3:53 AM 71.1 °F - 69.1 °F 93% 29.73 in 9.0 mi East 5.8 mph - N/A   Mostly Cloudy
4:53 AM 72.0 °F - 69.1 °F 91% 29.73 in 8.0 mi SE 6.9 mph - N/A   Overcast
5:53 AM 72.0 °F - 69.1 °F 91% 29.77 in 8.0 mi East 6.9 mph - N/A   Overcast
6:53 AM 72.0 °F - 69.1 °F 91% 29.77 in 8.0 mi ESE 4.6 mph - N/A   Overcast
7:53 AM 72.0 °F - 68.0 °F 87% 29.79 in 7.0 mi ESE 8.1 mph - N/A   Overcast
8:04 AM 71.6 °F - 69.8 °F 94% 29.82 in 7.0 mi ESE 6.9 mph - N/A   Overcast
8:53 AM 73.0 °F - 68.0 °F 84% 29.80 in 7.0 mi ESE 4.6 mph - N/A   Overcast
9:53 AM 75.2 °F - 68.0 °F 78% 29.83 in 8.0 mi SSE 6.9 mph - N/A   Overcast
10:53 AM 78.8 °F - 68.0 °F 69% 29.83 in 9.0 mi SSE 8.1 mph - N/A   Mostly Cloudy
11:22 AM 80.6 °F 83.2 °F 68.0 °F 65% 29.83 in 9.0 mi SSE 8.1 mph - N/A   Scattered Clouds
11:53 AM 82.9 °F 85.8 °F 68.0 °F 60% 29.80 in 10.0 mi ESE 10.4 mph - N/A   Partly Cloudy
12:53 PM 84.9 °F 87.6 °F 66.9 °F 55% 29.79 in 10.0 mi SE 5.8 mph - N/A   Partly Cloudy
1:53 PM 89.1 °F 92.9 °F 68.0 °F 50% 29.78 in 10.0 mi Calm Calm - N/A   Mostly Cloudy
2:53 PM 91.0 °F 94.3 °F 66.9 °F 45% 29.77 in 10.0 mi ENE 6.9 mph - N/A   Scattered Clouds
3:53 PM 91.9 °F 94.5 °F 66.0 °F 42% 29.74 in 10.0 mi Variable 3.5 mph 19.6 mph N/A   Clear
4:53 PM 93.9 °F 96.1 °F 64.9 °F 38% 29.73 in 10.0 mi East 5.8 mph - N/A   Clear
5:53 PM 93.9 °F 95.6 °F 64.0 °F 37% 29.73 in 10.0 mi SE 10.4 mph - N/A   Clear
6:53 PM 91.9 °F 93.3 °F 64.0 °F 39% 29.73 in 10.0 mi ESE 9.2 mph - N/A   Clear
7:53 PM 88.0 °F 90.7 °F 66.9 °F 49% 29.75 in 10.0 mi ESE 13.8 mph - N/A   Clear
8:53 PM 84.9 °F 88.2 °F 68.0 °F 57% 29.78 in 10.0 mi SE 11.5 mph - N/A   Clear
9:53 PM 81.0 °F 83.8 °F 68.0 °F 65% 29.80 in 10.0 mi SE 12.7 mph 20.7 mph N/A   Clear
10:53 PM 79.0 °F - 68.0 °F 69% 29.84 in 10.0 mi ESE 12.7 mph - N/A   Clear
11:53 PM 75.9 °F - 68.0 °F 76% 29.84 in 10.0 mi ESE 13.8 mph 23.0 mph N/A   Clear